Time,TemperatureF,DewpointF,PressureIn,WindDirection,WindDirectionDegrees,WindSpeedMPH,WindSpeedGustMPH,Humidity,HourlyPrecipIn,Conditions,Clouds,dailyrainin,SoftwareType,DateUTC
2013-01-30 00:12:00,71.8,66.0,29.97,ESE,112,5.8,-999.0,82,-99.99,,,0.00,Acu-Link.com,2013-01-30 05:12:00,
2013-01-30 00:27:00,71.8,64.9,29.97,ESE,112,6.3,-999.0,79,-99.99,,,0.00,Acu-Link.com,2013-01-30 05:27:00,
2013-01-30 00:42:00,72.0,65.1,29.96,SE,135,9.9,-999.0,79,-99.99,,,0.00,Acu-Link.com,2013-01-30 05:42:00,
2013-01-30 00:57:00,72.0,65.1,29.96,SE,135,8.3,-999.0,79,-99.99,,,0.00,Acu-Link.com,2013-01-30 05:57:00,
2013-01-30 01:12:00,72.0,65.1,29.96,ESE,112,7.8,-999.0,79,-99.99,,,0.00,Acu-Link.com,2013-01-30 06:12:00,
2013-01-30 01:27:00,71.8,64.9,29.96,SE,135,8.3,-999.0,79,-99.99,,,0.00,Acu-Link.com,2013-01-30 06:27:00,
2013-01-30 01:43:00,71.8,64.6,29.97,SSE,157,3.7,-999.0,78,-99.99,,,0.00,Acu-Link.com,2013-01-30 06:43:00,
2013-01-30 01:58:00,71.8,64.9,29.96,SSE,157,3.7,-999.0,79,-99.99,,,0.00,Acu-Link.com,2013-01-30 06:58:00,
2013-01-30 02:13:00,71.8,64.9,29.95,ESE,112,5.3,-999.0,79,-99.99,,,0.00,Acu-Link.com,2013-01-30 07:13:00,
2013-01-30 02:28:00,71.6,64.7,29.96,SSE,157,4.7,-999.0,79,-99.99,,,0.00,Acu-Link.com,2013-01-30 07:28:00,
2013-01-30 02:43:00,71.4,64.5,29.95,ESE,112,5.8,-999.0,79,-99.99,,,0.00,Acu-Link.com,2013-01-30 07:43:00,
2013-01-30 02:58:00,71.4,64.5,29.96,SE,135,6.8,-999.0,79,-99.99,,,0.00,Acu-Link.com,2013-01-30 07:58:00,
2013-01-30 03:13:00,71.4,64.9,29.96,SSE,157,7.3,-999.0,80,-99.99,,,0.00,Acu-Link.com,2013-01-30 08:13:00,
2013-01-30 03:28:00,71.4,64.5,29.96,SE,135,4.2,-999.0,79,-99.99,,,0.00,Acu-Link.com,2013-01-30 08:28:00,
2013-01-30 03:44:00,71.4,64.5,29.95,South,180,6.8,-999.0,79,-99.99,,,0.00,Acu-Link.com,2013-01-30 08:44:00,
2013-01-30 03:59:00,71.2,64.3,29.95,SE,135,4.7,-999.0,79,-99.99,,,0.00,Acu-Link.com,2013-01-30 08:59:00,
2013-01-30 04:15:00,71.2,64.3,29.94,ESE,112,4.2,-999.0,79,-99.99,,,0.00,Acu-Link.com,2013-01-30 09:15:00,
2013-01-30 04:30:00,71.2,64.3,29.94,SE,135,5.3,-999.0,79,-99.99,,,0.00,Acu-Link.com,2013-01-30 09:30:00,
2013-01-30 04:45:00,71.2,64.7,29.93,ESE,112,5.3,-999.0,80,-99.99,,,0.00,Acu-Link.com,2013-01-30 09:45:00,
2013-01-30 05:00:00,71.1,64.6,29.92,East,90,10.4,-999.0,80,-99.99,,,0.00,Acu-Link.com,2013-01-30 10:00:00,
2013-01-30 05:15:00,71.1,64.6,29.91,ESE,112,3.7,-999.0,80,-99.99,,,0.00,Acu-Link.com,2013-01-30 10:15:00,
2013-01-30 05:30:00,70.7,64.2,29.92,SSE,157,6.8,-999.0,80,-99.99,,,0.00,Acu-Link.com,2013-01-30 10:30:00,
2013-01-30 05:46:00,70.7,64.2,29.93,South,180,2.2,-999.0,80,-99.99,,,0.00,Acu-Link.com,2013-01-30 10:46:00,
2013-01-30 06:01:00,70.7,64.2,29.94,ESE,112,2.2,-999.0,80,-99.99,,,0.00,Acu-Link.com,2013-01-30 11:01:00,
2013-01-30 06:16:00,70.5,64.0,29.94,SE,135,3.7,-999.0,80,-99.99,,,0.00,Acu-Link.com,2013-01-30 11:16:00,
2013-01-30 06:31:00,70.3,63.8,29.94,SSE,157,3.2,-999.0,80,-99.99,,,0.00,Acu-Link.com,2013-01-30 11:31:00,
2013-01-30 06:46:00,70.2,63.7,29.94,SE,135,1.7,-999.0,80,-99.99,,,0.00,Acu-Link.com,2013-01-30 11:46:00,
2013-01-30 07:01:00,70.3,63.8,29.95,SE,135,3.7,-999.0,80,-99.99,,,0.00,Acu-Link.com,2013-01-30 12:01:00,
2013-01-30 07:16:00,70.7,63.9,29.95,SSE,157,4.2,-999.0,79,-99.99,,,0.00,Acu-Link.com,2013-01-30 12:16:00,
2013-01-30 07:31:00,71.1,63.9,29.95,ESE,112,3.7,-999.0,78,-99.99,,,0.00,Acu-Link.com,2013-01-30 12:31:00,
2013-01-30 07:46:00,72.5,64.1,29.94,SE,135,7.3,-999.0,75,-99.99,,,0.00,Acu-Link.com,2013-01-30 12:46:00,
2013-01-30 08:02:00,72.9,64.1,29.94,WSW,247,6.8,-999.0,74,-99.99,,,0.00,Acu-Link.com,2013-01-30 13:02:00,
2013-01-30 08:17:00,74.5,64.1,29.94,South,180,6.3,-999.0,70,-99.99,,,0.00,Acu-Link.com,2013-01-30 13:17:00,
2013-01-30 08:32:00,74.7,64.7,29.94,ESE,112,6.3,-999.0,71,-99.99,,,0.00,Acu-Link.com,2013-01-30 13:32:00,
2013-01-30 08:47:00,75.0,64.9,29.95,SSW,202,8.9,-999.0,71,-99.99,,,0.00,Acu-Link.com,2013-01-30 13:47:00,
2013-01-30 09:02:00,75.7,64.4,29.95,ESE,112,8.9,-999.0,68,-99.99,,,0.00,Acu-Link.com,2013-01-30 14:02:00,
2013-01-30 09:17:00,75.9,64.1,29.95,ESE,112,13.5,-999.0,67,-99.99,,,0.00,Acu-Link.com,2013-01-30 14:17:00,
2013-01-30 09:32:00,76.1,64.8,29.95,ESE,112,4.2,-999.0,68,-99.99,,,0.00,Acu-Link.com,2013-01-30 14:32:00,
2013-01-30 09:47:00,76.6,64.8,29.95,ESE,112,7.3,-999.0,67,-99.99,,,0.00,Acu-Link.com,2013-01-30 14:47:00,
2013-01-30 10:03:00,75.4,64.9,29.95,SE,135,10.4,-999.0,70,-99.99,,,0.00,Acu-Link.com,2013-01-30 15:03:00,
2013-01-30 10:18:00,75.4,65.3,29.94,ESE,112,9.9,-999.0,71,-99.99,,,0.00,Acu-Link.com,2013-01-30 15:18:00,
2013-01-30 10:33:00,76.3,64.9,29.93,SE,135,11.4,-999.0,68,-99.99,,,0.00,Acu-Link.com,2013-01-30 15:33:00,
2013-01-30 10:48:00,76.8,65.0,29.92,ESE,112,11.4,-999.0,67,-99.99,,,0.00,Acu-Link.com,2013-01-30 15:48:00,
2013-01-30 11:03:00,77.4,65.6,29.92,South,180,19.1,-999.0,67,-99.99,,,0.00,Acu-Link.com,2013-01-30 16:03:00,
2013-01-30 11:18:00,77.9,65.2,29.91,SE,135,9.4,-999.0,65,-99.99,,,0.00,Acu-Link.com,2013-01-30 16:18:00,
2013-01-30 11:33:00,78.1,65.4,29.91,South,180,14.5,-999.0,65,-99.99,,,0.00,Acu-Link.com,2013-01-30 16:33:00,
2013-01-30 11:48:00,77.9,65.2,29.89,South,180,10.9,-999.0,65,-99.99,,,0.00,Acu-Link.com,2013-01-30 16:48:00,
2013-01-30 12:03:00,77.5,65.2,29.89,ESE,112,8.9,-999.0,66,-99.99,,,0.00,Acu-Link.com,2013-01-30 17:03:00,
2013-01-30 12:19:00,77.2,66.2,29.87,SE,135,14.0,-999.0,69,-99.99,,,0.00,Acu-Link.com,2013-01-30 17:19:00,
2013-01-30 12:34:00,77.5,66.5,29.85,SSE,157,9.9,-999.0,69,-99.99,,,0.00,Acu-Link.com,2013-01-30 17:34:00,
2013-01-30 12:49:00,79.0,66.7,29.84,SSE,157,10.4,-999.0,66,-99.99,,,0.00,Acu-Link.com,2013-01-30 17:49:00,
2013-01-30 13:04:00,78.4,66.5,29.85,SSW,202,11.4,-999.0,67,-99.99,,,0.00,Acu-Link.com,2013-01-30 18:04:00,
2013-01-30 13:19:00,78.3,66.8,29.84,SE,135,10.9,-999.0,68,-99.99,,,0.00,Acu-Link.com,2013-01-30 18:19:00,
2013-01-30 13:34:00,79.9,67.9,29.82,ESE,112,3.7,-999.0,67,-99.99,,,0.00,Acu-Link.com,2013-01-30 18:34:00,
2013-01-30 13:49:00,79.0,67.1,29.82,SSE,157,6.8,-999.0,67,-99.99,,,0.00,Acu-Link.com,2013-01-30 18:49:00,
2013-01-30 14:04:00,78.4,66.9,29.83,South,180,9.4,-999.0,68,-99.99,,,0.00,Acu-Link.com,2013-01-30 19:04:00,
2013-01-30 14:19:00,78.8,67.7,29.82,SE,135,5.3,-999.0,69,-99.99,,,0.00,Acu-Link.com,2013-01-30 19:19:00,
2013-01-30 14:35:00,79.0,67.9,29.81,South,180,4.7,-999.0,69,-99.99,,,0.00,Acu-Link.com,2013-01-30 19:35:00,
2013-01-30 14:50:00,78.1,67.5,29.83,West,270,6.3,-999.0,70,-99.99,,,0.00,Acu-Link.com,2013-01-30 19:50:00,
2013-01-30 15:05:00,79.2,67.7,29.84,South,180,11.9,-999.0,68,-99.99,,,0.00,Acu-Link.com,2013-01-30 20:05:00,
2013-01-30 15:20:00,78.4,66.1,29.84,SSE,157,9.9,-999.0,66,-99.99,,,0.00,Acu-Link.com,2013-01-30 20:20:00,
2013-01-30 15:35:00,79.5,67.1,29.84,SSE,157,10.9,-999.0,66,-99.99,,,0.00,Acu-Link.com,2013-01-30 20:35:00,
2013-01-30 15:50:00,79.5,65.8,29.84,SSE,157,10.9,-999.0,63,-99.99,,,0.00,Acu-Link.com,2013-01-30 20:50:00,
2013-01-30 16:05:00,79.9,66.6,29.85,South,180,7.8,-999.0,64,-99.99,,,0.00,Acu-Link.com,2013-01-30 21:05:00,
2013-01-30 16:20:00,78.8,66.0,29.85,South,180,6.8,-999.0,65,-99.99,,,0.00,Acu-Link.com,2013-01-30 21:20:00,
2013-01-30 16:35:00,78.4,65.6,29.86,SSW,202,5.3,-999.0,65,-99.99,,,0.00,Acu-Link.com,2013-01-30 21:35:00,
2013-01-30 16:51:00,78.4,65.6,29.85,South,180,7.3,-999.0,65,-99.99,,,0.00,Acu-Link.com,2013-01-30 21:51:00,
2013-01-30 17:06:00,78.6,65.4,29.84,SSE,157,7.3,-999.0,64,-99.99,,,0.00,Acu-Link.com,2013-01-30 22:06:00,
2013-01-30 17:21:00,78.3,65.5,29.84,SSW,202,4.7,-999.0,65,-99.99,,,0.00,Acu-Link.com,2013-01-30 22:21:00,
2013-01-30 17:36:00,77.7,65.0,29.83,South,180,4.7,-999.0,65,-99.99,,,0.00,Acu-Link.com,2013-01-30 22:36:00,
2013-01-30 17:51:00,76.8,65.4,29.82,South,180,6.3,-999.0,68,-99.99,,,0.00,Acu-Link.com,2013-01-30 22:51:00,
2013-01-30 18:06:00,75.9,65.8,29.83,SSE,157,3.2,-999.0,71,-99.99,,,0.00,Acu-Link.com,2013-01-30 23:06:00,
2013-01-30 18:21:00,75.0,66.9,29.83,SSW,202,3.7,-999.0,76,-99.99,,,0.00,Acu-Link.com,2013-01-30 23:21:00,
2013-01-30 18:36:00,74.3,66.6,29.83,SSE,157,4.2,-999.0,77,-99.99,,,0.00,Acu-Link.com,2013-01-30 23:36:00,
2013-01-30 18:52:00,73.9,67.0,29.83,South,180,4.7,-999.0,79,-99.99,,,0.00,Acu-Link.com,2013-01-30 23:52:00,
2013-01-30 19:07:00,73.4,67.2,29.83,SE,135,4.7,-999.0,81,-99.99,,,0.00,Acu-Link.com,2013-01-31 00:07:00,
2013-01-30 19:22:00,73.0,67.2,29.84,SSE,157,2.7,-999.0,82,-99.99,,,0.00,Acu-Link.com,2013-01-31 00:22:00,
2013-01-30 19:37:00,72.7,67.2,29.84,South,180,3.2,-999.0,83,-99.99,,,0.00,Acu-Link.com,2013-01-31 00:37:00,
2013-01-30 19:52:00,72.3,67.2,29.82,South,180,3.2,-999.0,84,-99.99,,,0.00,Acu-Link.com,2013-01-31 00:52:00,
2013-01-30 20:07:00,72.0,66.9,29.83,SSE,157,3.2,-999.0,84,-99.99,,,0.00,Acu-Link.com,2013-01-31 01:07:00,
2013-01-30 20:22:00,71.4,67.0,29.83,SSE,157,2.2,-999.0,86,-99.99,,,0.00,Acu-Link.com,2013-01-31 01:22:00,
2013-01-30 20:37:00,70.9,67.2,29.83,SSE,157,2.7,-999.0,88,-99.99,,,0.00,Acu-Link.com,2013-01-31 01:37:00,
2013-01-30 20:52:00,70.9,67.5,29.84,SSE,157,3.7,-999.0,89,-99.99,,,0.00,Acu-Link.com,2013-01-31 01:52:00,
2013-01-30 21:08:00,71.1,67.7,29.84,South,180,2.7,-999.0,89,-99.99,,,0.00,Acu-Link.com,2013-01-31 02:08:00,
2013-01-30 21:23:00,70.5,67.4,29.83,South,180,1.7,-999.0,90,-99.99,,,0.00,Acu-Link.com,2013-01-31 02:23:00,
2013-01-30 21:38:00,70.2,67.8,29.84,South,180,0.0,-999.0,92,-99.99,,,0.00,Acu-Link.com,2013-01-31 02:38:00,
2013-01-30 21:53:00,70.0,67.9,29.84,South,180,3.2,-999.0,93,-99.99,,,0.00,Acu-Link.com,2013-01-31 02:53:00,
2013-01-30 22:08:00,70.0,67.9,29.86,South,180,2.2,-999.0,93,-99.99,,,0.00,Acu-Link.com,2013-01-31 03:08:00,
2013-01-30 22:23:00,70.3,68.2,29.86,South,180,3.2,-999.0,93,-99.99,,,0.00,Acu-Link.com,2013-01-31 03:23:00,
2013-01-30 22:38:00,70.9,68.8,29.85,SSE,157,4.7,-999.0,93,-99.99,,,0.00,Acu-Link.com,2013-01-31 03:38:00,
2013-01-30 22:54:00,70.9,68.8,29.84,SSW,202,4.7,-999.0,93,-99.99,,,0.00,Acu-Link.com,2013-01-31 03:54:00,
2013-01-30 23:09:00,71.1,68.7,29.85,South,180,3.2,-999.0,92,-99.99,,,0.00,Acu-Link.com,2013-01-31 04:09:00,
2013-01-30 23:24:00,71.1,68.7,29.84,SE,135,6.3,-999.0,92,-99.99,,,0.00,Acu-Link.com,2013-01-31 04:24:00,
2013-01-30 23:39:00,71.1,68.7,29.85,South,180,4.7,-999.0,92,-99.99,,,0.00,Acu-Link.com,2013-01-31 04:39:00,
2013-01-30 23:54:00,71.1,69.0,29.85,SSE,157,6.8,-999.0,93,-99.99,,,0.00,Acu-Link.com,2013-01-31 04:54:00,